FW4331 Weather Reports


Display with metric or nautical units.
time (UTC)temp
F
wind
direction
speed
MPH
gust
MPH
rain 1hr
in
rain 24hr
in
rain mn
in
humidity
%
barometer
mb
20260904044548 70 53 0.0 2.0 0.36 0.51 0.00 44 1013.9
20260904043043 70 81 0.0 7.0 0.51 0.51 0.00 40 1013.9
20260904041534 71 307 2.0 14.0 0.51 0.51 0.00 40 1014.8
20260904040036 71 30 13.0 24.0 0.51 0.51 0.00 42 1014.5
20260904034525 74 32 11.0 35.0 0.13 0.13 0.13 56 1014.2
20260904033025 78 68 8.0 17.0 0.00 0.00 0.00 51 1013.8
20260904031521 80 293 4.0 11.0 0.00 0.00 0.00 42 1012.6
20260904030020 80 271 0.0 1.0 0.00 0.00 0.00 52 1012.1
20260904024526 81 300 1.0 4.0 0.00 0.00 0.00 57 1012.2
20260904023016 81 251 0.0 0.0 0.00 0.00 0.00 57 1012.6
20260904021519 81 274 0.0 0.0 0.00 0.00 0.00 58 1012.6
20260904020011 81 161 0.0 0.0 0.00 0.00 0.00 59 1012.7
20260904014510 81 160 0.0 0.0 0.00 0.00 0.00 60 1012.6
20260904013008 81 160 0.0 0.0 0.00 0.00 0.00 61 1012.7
20260904011505 82 160 0.0 0.0 0.00 0.00 0.00 61 1012.7
20260904010009 82 274 0.0 0.0 0.00 0.00 0.00 62 1012.5
20260904004501 82 217 0.0 0.0 0.00 0.00 0.00 61 1012.8
20260904003123 83 201 0.0 0.0 0.00 0.00 0.00 61 1012.9
20260904001558 83 262 0.0 2.0 0.00 0.00 0.00 61 1013.1
20260904000056 83 278 0.0 1.0 0.00 0.00 0.00 61 1013.0
20260903234553 84 278 0.0 4.0 0.00 0.00 0.00 60 1013.0
20260903233056 85 273 1.0 3.0 0.00 0.00 0.00 59 1012.6
20260903231550 86 165 0.0 2.0 0.00 0.00 0.00 58 1012.5
20260903230050 86 227 2.0 5.0 0.00 0.00 0.00 57 1012.6
20260903224548 87 262 0.0 5.0 0.00 0.00 0.00 57 1012.3
20260903223103 88 262 2.0 5.0 0.00 0.00 0.00 55 1012.1
20260903221547 89 269 1.0 7.0 0.00 0.00 0.00 54 1012.1
20260903220045 89 200 3.0 8.0 0.00 0.00 0.00 54 1012.1
20260903214544 90 246 4.0 7.0 0.00 0.00 0.00 54 1012.3
20260903213045 90 297 4.0 10.0 0.00 0.00 0.00 53 1012.4
20260903211600 90 217 4.0 10.0 0.00 0.00 0.00 53 1012.3
20260903210041 90 228 4.0 7.0 0.00 0.00 0.00 52 1012.4
20260903204540 91 236 4.0 8.0 0.00 0.00 0.00 50 1012.5
20260903203040 91 242 2.0 10.0 0.00 0.00 0.00 52 1012.5
20260903201537 90 209 5.0 8.0 0.00 0.00 0.00 52 1012.7
20260903200034 91 249 4.0 8.0 0.00 0.00 0.00 49 1013.0
20260903194530 90 269 3.0 7.0 0.00 0.01 0.00 50 1013.2
20260903193027 90 222 4.0 11.0 0.00 0.01 0.00 49 1013.5
20260903191529 90 284 5.0 8.0 0.00 0.01 0.00 49 1013.7
20260903190025 90 216 3.0 8.0 0.00 0.01 0.00 49 1013.8
20260903184523 90 245 3.0 7.0 0.00 0.01 0.00 48 1014.0
20260903183021 89 281 3.0 9.0 0.00 0.01 0.00 47 1014.2
20260903181523 89 245 5.0 8.0 0.00 0.01 0.00 46 1014.4
20260903180018 89 129 2.0 5.0 0.00 0.01 0.00 37 1014.2
20260903174512 88 229 1.0 6.0 0.00 0.01 0.00 28 1014.5
20260903173008 87 273 2.0 5.0 0.00 0.01 0.00 28 1015.1
20260903171509 87 247 3.0 6.0 0.00 0.01 0.00 24 1015.2
20260903170004 86 329 0.0 4.0 0.00 0.01 0.00 27 1015.9
20260903164501 86 37 3.0 6.0 0.00 0.01 0.00 25 1016.0
20260903163056 84 279 1.0 7.0 0.00 0.01 0.00 28 1016.2
20260903161551 82 52 0.0 5.0 0.00 0.01 0.00 33 1016.3
20260903160048 82 56 5.0 11.0 0.00 0.01 0.00 33 1016.6
20260903154543 81 351 1.0 4.0 0.00 0.01 0.00 33 1016.6
20260903153041 81 250 2.0 5.0 0.00 0.01 0.00 33 1016.2
20260903151537 80 252 1.0 4.0 0.00 0.01 0.00 33 1016.2
20260903150035 79 326 0.0 5.0 0.00 0.01 0.00 35 1016.3
20260903144530 79 227 3.0 6.0 0.00 0.01 0.00 35 1016.2
20260903143027 78 276 0.0 3.0 0.00 0.01 0.00 37 1016.2
20260903141524 78 225 1.0 3.0 0.00 0.01 0.00 36 1016.0
20260903140037 78 240 0.0 4.0 0.00 0.01 0.00 37 1015.8
20260903134521 76 99 2.0 4.0 0.00 0.01 0.00 39 1015.9
20260903133014 76 133 0.0 1.0 0.00 0.01 0.00 40 1016.0
20260903131511 75 122 0.0 6.0 0.00 0.01 0.00 42 1016.3
20260903130005 74 108 2.0 5.0 0.00 0.01 0.00 44 1016.6
20260903124502 73 34 4.0 10.0 0.00 0.01 0.00 45 1017.0
20260903123058 73 23 1.0 6.0 0.00 0.01 0.00 46 1016.9
20260903121555 72 62 4.0 9.0 0.00 0.01 0.00 47 1016.9
20260903120056 72 69 3.0 9.0 0.00 0.01 0.00 48 1016.9
20260903114653 72 27 6.0 11.0 0.00 0.01 0.00 48 1016.8
20260903113046 72 17 4.0 9.0 0.00 0.01 0.00 48 1016.6
20260903111540 0 0.0 0.0 0.00 0.01 0.00 1016.1
20260903110041 0 0.0 0.0 0.00 0.01 0.00 1015.9
20260903104530 0 0.0 0.0 0.00 0.01 0.00 1015.4
20260903103028 0 0.0 0.0 0.00 0.01 0.00 1014.9
20260903101522 0 20 0.0 0.0 0.00 0.01 0.00 1014.9
20260903100019 71 20 0.0 0.0 0.00 0.01 0.00 49 1014.7
20260903094521 71 20 0.0 0.0 0.00 0.01 0.00 49 1014.9
20260903093018 71 20 0.0 0.0 0.00 0.01 0.00 48 1014.9
20260903091512 71 20 0.0 0.0 0.00 0.01 0.00 49 1014.9
20260903090013 71 20 0.0 0.0 0.00 0.01 0.00 48 1015.0
20260903084507 71 20 0.0 0.0 0.00 0.01 0.00 48 1014.9
20260903083007 71 20 0.0 0.0 0.00 0.01 0.00 48 1014.8
20260903081505 72 20 0.0 1.0 0.00 0.01 0.00 48 1014.8
20260903080003 71 20 1.0 3.0 0.00 0.01 0.00 48 1015.0
20260903074610 71 28 0.0 1.0 0.00 0.01 0.00 48 1015.0
20260903073135 71 29 0.0 0.0 0.00 0.01 0.00 47 1014.8
20260903071618 71 192 0.0 0.0 0.00 0.01 0.00 47 1014.6
20260903070055 71 235 1.0 3.0 0.00 0.01 0.00 47 1014.6
20260903064552 71 202 1.0 4.0 0.00 0.01 0.00 46 1014.5
20260903063056 71 208 1.0 3.0 0.00 0.01 0.00 46 1014.5
20260903061547 71 226 0.0 0.0 0.00 0.01 0.00 44 1014.6
20260903060111 71 232 0.0 0.0 0.00 0.01 0.00 41 1014.9
20260903054541 71 177 0.0 0.0 0.00 0.01 0.00 39 1015.1
20260903053036 72 235 0.0 0.0 0.00 0.01 0.00 40 1015.3
20260903051533 72 174 0.0 0.0 0.00 0.01 0.00 43 1015.4
20260903050032 73 141 0.0 0.0 0.00 0.01 0.00 45 1015.4